McGrath, AK

4:24 AM AKDT on October 17, 2017 (GMT -0800)
McGrath

Weather History for PAMC - April, 2013

Change the Weather History Date:

Monday, April 22, 2013

  Actual Average Record
Temperature  
Mean Temperature 32 °F 35 °F  
Max Temperature 50 °F 45 °F 60 °F (2007)
Min Temperature 13 °F 24 °F -6 °F (1972)
Degree Days  
Heating Degree Days 33 31  
Month to date heating degree days 1093 839  
Since 1 July heating degree days 13341 12726  
Cooling Degree Days 0 0  
Month to date cooling degree days 0 0  
Year to date cooling degree days 0 0  
Moisture  
Dew Point 13 °F    
Average Humidity 46    
Maximum Humidity 84    
Minimum Humidity 11    
Precipitation  
Precipitation 0.00 in 0.03 in 1.03 in (1960)
Month to date precipitation 0.03 0.53  
Year to date precipitation 3.69 3.37  
Snow  
Snow 0.00 in 0.10 in 8.50 in (1960)
Month to date snowfall 0.4 4.2  
Since 1 July snowfall 73.5 95.5  
Snow Depth 22.00 in    
Sea Level Pressure  
Sea Level Pressure 30.45 in    
Wind  
Wind Speed 0 mph (SW)    
Max Wind Speed 6 mph    
Max Gust Speed 8 mph    
Visibility 10 miles    
Events      
T = Trace of Precipitation, MM = Missing Value Source: NWS Daily Summary

Daily Weather History Graph

Daily Weather History Graph

Search for Another Location

Airport or City:

Trip Planner

Search our weather history database for the weather conditions in past years. The results will help you decide how hot, cold, wet, or windy it might be!

Date:

Astronomy

Apr. 22, 2013 Rise Set
Actual Time 6:30 AM AKDT 10:13 PM AKDT
Civil Twilight 5:34 AM AKDT 11:10 PM AKDT
Nautical Twilight 4:05 AM AKDT 12:41 AM AKDT
Astronomical Twilight Sun does not rise Sun does not rise
Moon 6:22 PM AKDT (4/22) 5:33 AM AKDT (4/22)
Length of Visible Light 17h 35m
Length of Day
15h 42m
Waxing Gibbous, 89% of the Moon is Illuminated
Apr 22
Waxing Gibbous
Apr 25
Full
May 2
Last Quarter
May 9
New
May 17
First Quarter

Hourly Weather History & Observations

Time (AKDT) Temp. Windchill Dew Point Humidity Pressure Visibility Wind Dir Wind Speed Gust Speed Precip Events Conditions
12:53 AM 25.0 °F - 15.1 °F 66% 30.42 in 10.0 mi Calm Calm - N/A   Clear
1:53 AM 21.9 °F - 14.0 °F 72% 30.44 in 10.0 mi Calm Calm - N/A   Clear
2:53 AM 21.0 °F 16.2 °F 12.9 °F 71% 30.44 in 10.0 mi West 3.5 mph - N/A   Clear
3:53 AM 19.9 °F - 10.9 °F 68% 30.45 in 10.0 mi Calm Calm - N/A   Clear
4:53 AM 18.0 °F - 10.0 °F 71% 30.46 in 10.0 mi Calm Calm - N/A   Clear
5:53 AM 15.1 °F - 10.0 °F 80% 30.47 in 10.0 mi Calm Calm - N/A   Clear
6:53 AM 12.9 °F - 9.0 °F 84% 30.47 in 10.0 mi Calm Calm - N/A   Clear
7:53 AM 17.1 °F - 10.0 °F 74% 30.48 in 10.0 mi Calm Calm - N/A   Clear
8:53 AM 21.9 °F - 10.9 °F 63% 30.48 in 10.0 mi Calm Calm - N/A   Clear
9:53 AM 28.0 °F - 12.0 °F 51% 30.49 in 10.0 mi Calm Calm - N/A   Clear
10:53 AM 34.0 °F - 12.0 °F 40% 30.49 in 10.0 mi Calm Calm - N/A   Clear
11:53 AM 39.0 °F - 10.9 °F 32% 30.49 in 10.0 mi Calm Calm - N/A   Clear
12:53 PM 42.1 °F - 12.9 °F 31% 30.48 in 10.0 mi Calm Calm - N/A   Clear
1:53 PM 46.9 °F - 12.9 °F 25% 30.48 in 10.0 mi Calm Calm - N/A   Clear
2:53 PM 48.0 °F - 10.9 °F 22% 30.46 in 10.0 mi Calm Calm - N/A   Clear
3:53 PM 48.0 °F - 10.9 °F 22% 30.45 in 10.0 mi Calm Calm - N/A   Clear
4:53 PM 48.9 °F - 9.0 °F 20% 30.44 in 10.0 mi Calm Calm - N/A   Clear
5:53 PM 48.0 °F - 10.0 °F 22% 30.42 in 10.0 mi Calm Calm - N/A   Clear
6:53 PM 48.0 °F - 10.9 °F 22% 30.41 in 10.0 mi Calm Calm - N/A   Clear
7:53 PM 48.0 °F - 12.0 °F 24% 30.40 in 10.0 mi Calm Calm - N/A   Clear
8:53 PM 46.0 °F 44.8 °F 16.0 °F 30% 30.40 in 10.0 mi South 3.5 mph - N/A   Clear
9:53 PM 39.9 °F - 19.0 °F 43% 30.40 in 10.0 mi Calm Calm - N/A   Clear
10:53 PM 33.1 °F - 19.0 °F 56% 30.40 in 10.0 mi Calm Calm - N/A   Clear
11:53 PM 28.9 °F - 18.0 °F 64% 30.40 in 10.0 mi Calm Calm - N/A   Mostly Cloudy